View from above orbital plane
|
View from above satellite
|
Ground track
|
The orbit data is extracted from the following two-line orbital elements,
1 20642U 90050E 21104.00391214 0.00000250 00000-0 33584-4 0 03
2 20642 63.3118 168.0453 0892433 49.1201 310.8799 13.42236173 00
Epoch (UTC): | 14 April 2021 00:05:38 |
Eccentricity: | 0.0892433 |
inclination: | 63.3118° |
perigee height: | 433 km |
apogee height: | 1768 km |
right ascension of ascending node: | 168.0453° |
argument of perigee: | 49.1201° |
revolutions per day: | 13.42236173 |
mean anomaly at epoch: | 310.8799° |
orbit number at epoch: | 0 |
The dashed part of the orbit path shows where the satellite is in the earth's shadow,
|
|